Miscellaneous Local Product
Issued by NWS North Platte, NE

Home | Current Version | Previous Version | Text Only | Print | Product List | Glossary On
Versions: 1 2 3 4 5 6 7 8 9 10 11 12 13 14 15 16 17 18 19 20 21 22 23 24 25 26 27 28 29 30 31 32 33 34 35 36 37 38 39 40 41 42 43 44 45 46 47 48 49 50
000
AXUS43 KLBF 291310
MISLBF


WESTERN AND NORTH CENTRAL NEBRASKA HOURLY WEATHER ROUNDUP
NATIONAL WEATHER SERVICE NORTH PLATTE NE
800 AM CDT SUN MAY 29 2016

NOTE: "FAIR" INDICATES FEW OR NO CLOUDS BELOW 12,000 FEET WITH NO
SIGNIFICANT WEATHER AND/OR OBSTRUCTIONS TO VISIBILITY.

NOTE: STATIONS NOT REPORTING VARIABLES SUCH AS SKY/WEATHER OR
PRESSURE ARE PROVIDED BY RAWS AND APRS NETWORKS AND ARE NOT UNDER
NATIONAL WEATHER SERVICE QUALITY CONTROL.

...OBSERVATIONS IN AND NEAR THE EASTERN PANHANDLE OF NEBRASKA...

CITY           SKY/WX    TMP DP  RH WIND       PRES   REMARKS
PINE RIDGE     SUNNY     44  42  93 CALM      30.10S
CHADRON        SUNNY     46  42  86 CALM      30.10S
ALLIANCE       SUNNY     47  45  93 CALM      30.11R
SIDNEY         SUNNY     50  46  86 CALM      30.14R
CRESCENT LAKE    N/A     55  52  90 CALM        N/A
BIG SPRINGS      N/A     47  46  95 CALM        N/A
$$

...OBSERVATIONS IN NORTHERN NEBRASKA AND FAR SOUTHERN SOUTH DAKOTA...

CITY           SKY/WX    TMP DP  RH WIND       PRES   REMARKS
WINNER         FAIR      59  51  75 NW6       30.08R
VALENTINE      MOSUNNY   54  49  83 CALM      30.09S
THEDFORD       MOSUNNY   55  51  88 CALM      30.13R
AINSWORTH      SUNNY     57  52  81 W6        30.10R
O`NEILL        SUNNY     62  55  75 W7        30.08S
ORD            SUNNY     58  55  90 CALM      30.08R
BROKEN BOW     SUNNY     59  54  83 W5        30.11R
BUTTE            N/A     59  54  84 W6          N/A
CHAMBERS         N/A     69  58  67 SW3         N/A
EWING            N/A     62  59  89 W3          N/A
$$

...OBSERVATIONS IN SOUTHWEST NEBRASKA AND FAR NORTHEAST COLORADO...

CITY           SKY/WX    TMP DP  RH WIND       PRES   REMARKS
WRAY           FAIR      52  46  82 W5        30.12S
IMPERIAL       SUNNY     56  51  84 NW5       30.13R
OGALLALA       SUNNY     51  49  93 CALM      30.13R
NORTH PLATTE   SUNNY     54  52  93 CALM      30.13R
MCCOOK         SUNNY     58  53  84 NE5       30.11R
LEXINGTON      SUNNY     57  53  84 NW3       30.12S
PAXTON           N/A     48  46  92 CALM        N/A
STAPLETON        N/A     51  48  91 CALM        N/A
GOTHENBURG       N/A     53  47  80 CALM        N/A
CALLAWAY         N/A     53  51  94 CALM        N/A
$$

...OBSERVATIONS IN CENTRAL LINCOLN COUNTY AREA...

CITY           SKY/WX    TMP DP  RH WIND       PRES   REMARKS
N.P. AIRPORT   SUNNY     54  52  93 CALM      30.13R
N.P. DOWNTOWN    N/A     59  53  80 CALM        N/A
N.P. SOUTHEAST   N/A     56  52  86 CALM        N/A
N.P. HILLCREST   N/A     60  53  77 CALM        N/A
$$

...SOME OBSERVATIONS FROM AROUND THE REGION...

CITY           SKY/WX    TMP DP  RH WIND       PRES   REMARKS
DENVER         MOSUNNY   52  40  63 SW9       30.17R
LARAMIE        SUNNY     44  36  73 SE7       30.23R
CHEYENNE       SUNNY     50  38  63 W10       30.18S
SCOTTSBLUFF    SUNNY     50  45  83 NW7       30.12R
RAPID CITY     CLOUDY    54  47  77 NW7       30.09R
BISMARCK       SUNNY     54  52  93 W3        30.02R
PIERRE         SUNNY     55  53  93 SW7       30.05R
SIOUX FALLS    MOSUNNY   62  59  90 VRB3      30.02R
OMAHA          CLOUDY    60  57  89 SE3       30.07R
GRAND ISLAND   MOSUNNY   64  56  75 SW5       30.11R
KANSAS CITY    SUNNY     67  60  78 W6        30.09R
WICHITA        MOSUNNY   68  63  84 S3        30.10S
OKLAHOMA CITY  PTSUNNY   68  67  96 CALM      30.10R
DALLAS         LGT RAIN  69  64  84 N6        30.09F
AMARILLO       SUNNY     61  54  77 SE6       30.18R
DODGE CITY     SUNNY     64  57  78 S7        30.13S
HAYS           MOSUNNY   61  52  72 CALM      30.11R
GOODLAND       SUNNY     60  50  69 S9        30.13R
$$




USA.gov is the U.S. government's official web portal to all federal, state and local government web resources and services.